Location: Favalello
(42.2939°N, 9.2706°E)
Time: 03:27:54
(UTC+00:00)

Cosmos 2242 Rocket - Pass Details

Date: 06 December 2019
Orbit: 617 x 652 km, 82.5° (Epoch: 22 January)

Event Time Altitude Azimuth Distance (km) Brightness Sun altitude
Rises 17:06:05 0° 172° (S) 2,938 7.2 -13.6°
Reaches altitude 10° 17:08:22 10° 167° (SSE) 2,038 6.3 -14.0°
Maximum altitude 17:12:44 49° 93° (E) 840 3.8 -14.7°
Drops below altitude 10° 17:17:09 10° 19° (NNE) 2,066 5.9 -15.5°
Enters shadow 17:17:14 10° 19° (NNE) 2,096 5.9 -15.5°
